Back to catalog

STARLINK-31092

AliveCommunicationsVLEO
NORAD 58628·PAYLOAD·🇺🇸 United States

Launched Dec 23, 2023 from Cape Canaveral Space Force Station

Loading…

Next Passes (next 24 hours)

TLE

FreshSource: CelesTrak SupGP

Epoch: Sep 14, 2026, 22:37 UTC

1 58628C 23203L   26257.94284722  .00061840  00000+0  22386-2 0  2577
2 58628  42.9996  78.1984 0001404 275.8166 178.4023 15.27566119    10

Track STARLINK-31092 in real time with AllMySat

Download on the App Store